TimeCST,TemperatureF,Dew PointF,Humidity,Sea Level PressureIn,VisibilityMPH,Wind Direction,Wind SpeedMPH,Gust SpeedMPH,PrecipitationIn,Events,Conditions,WindDirDegrees,DateUTC
12:53 AM,32.0,19.9,61,30.13,10.0,NNW,5.8,-,N/A,,Clear,330,2013-11-18 06:53:00
1:53 AM,28.0,19.9,72,30.16,9.0,WSW,4.6,-,0.00,Snow,Light Snow,240,2013-11-18 07:53:00
2:53 AM,26.1,19.9,78,30.20,10.0,SSW,6.9,-,0.00,,Clear,210,2013-11-18 08:53:00
3:53 AM,28.0,21.0,75,30.20,9.0,SSW,4.6,-,0.00,,Clear,210,2013-11-18 09:53:00
4:53 AM,27.0,21.0,78,30.22,10.0,SW,5.8,-,0.00,,Clear,220,2013-11-18 10:53:00
5:53 AM,27.0,21.0,78,30.24,9.0,WSW,9.2,-,0.00,Snow,Light Snow,250,2013-11-18 11:53:00
6:53 AM,26.1,19.9,78,30.27,9.0,SW,6.9,-,0.00,Snow,Light Snow,220,2013-11-18 12:53:00
7:53 AM,28.0,21.0,75,30.28,9.0,SW,8.1,-,0.00,Snow,Light Snow,220,2013-11-18 13:53:00
8:53 AM,35.1,24.1,64,30.29,9.0,WSW,6.9,-,0.00,Snow,Light Snow,240,2013-11-18 14:53:00
9:53 AM,44.1,25.0,47,30.31,10.0,WSW,10.4,-,0.00,,Clear,250,2013-11-18 15:53:00
10:53 AM,50.0,24.1,36,30.30,10.0,SW,15.0,-,N/A,,Clear,220,2013-11-18 16:53:00
11:53 AM,54.0,23.0,30,30.26,10.0,SW,16.1,-,N/A,,Clear,220,2013-11-18 17:53:00
12:53 PM,57.9,21.0,24,30.24,10.0,SSW,12.7,-,N/A,,Clear,200,2013-11-18 18:53:00
1:53 PM,59.0,18.0,20,30.22,10.0,South,17.3,-,N/A,,Clear,190,2013-11-18 19:53:00
2:53 PM,60.1,19.0,20,30.20,10.0,SSW,13.8,-,N/A,,Clear,200,2013-11-18 20:53:00
3:53 PM,60.1,19.9,21,30.17,10.0,South,17.3,21.9,N/A,,Clear,190,2013-11-18 21:53:00
4:53 PM,55.0,21.0,27,30.18,10.0,South,8.1,-,N/A,,Clear,170,2013-11-18 22:53:00
5:53 PM,46.9,21.0,36,30.20,10.0,SSE,10.4,-,N/A,,Clear,160,2013-11-18 23:53:00
6:53 PM,41.0,19.9,43,30.21,10.0,South,8.1,-,N/A,,Clear,170,2013-11-19 00:53:00
7:53 PM,41.0,21.9,47,30.21,10.0,South,10.4,-,N/A,,Clear,170,2013-11-19 01:53:00
8:53 PM,39.9,23.0,51,30.21,10.0,South,6.9,-,N/A,,Clear,170,2013-11-19 02:53:00
9:53 PM,39.9,23.0,51,30.19,10.0,South,10.4,-,N/A,,Clear,180,2013-11-19 03:53:00
10:53 PM,39.9,23.0,51,30.18,10.0,South,9.2,-,N/A,,Clear,180,2013-11-19 04:53:00
11:53 PM,37.9,23.0,55,30.17,10.0,South,11.5,-,N/A,,Clear,170,2013-11-19 05:53:00